CW8845 Weather Reports


Display with metric or nautical units.
time (UTC)temp
F
wind
direction
speed
MPH
gust
MPH
rain 1hr
in
rain 24hr
in
rain mn
in
humidity
%
barometer
mb
20260901031624 69 131 10.0 21.0 0.00 0.00 0.00 49 1016.9
20260901030614 69 149 13.0 23.0 0.00 0.00 0.00 48 1016.8
20260901025616 69 140 10.0 20.0 0.00 0.00 0.00 50 1016.7
20260901024626 70 100 11.0 19.0 0.00 0.00 0.00 51 1016.6
20260901023619 71 191 11.0 22.0 0.00 0.00 0.00 47 1016.3
20260901022629 71 187 12.0 26.0 0.00 0.00 0.00 46 1016.0
20260901021618 72 173 13.0 26.0 0.00 0.00 0.00 47 1015.9
20260901020631 72 157 15.0 24.0 0.00 0.00 0.00 47 1015.4
20260901015612 73 164 13.0 26.0 0.00 0.00 0.00 45 1015.2
20260901014623 73 163 16.0 27.0 0.00 0.00 0.00 42 1015.0
20260901013613 75 167 16.0 30.0 0.00 0.00 0.00 38 1015.0
20260901012628 79 161 9.0 13.0 0.00 0.00 0.00 34 1014.6
20260901011617 79 169 7.0 14.0 0.00 0.00 0.00 32 1014.3
20260901010626 79 186 5.0 10.0 0.00 0.00 0.00 34 1014.2
20260901005649 79 175 7.0 11.0 0.00 0.00 0.00 33 1014.0
20260901004642 79 173 7.0 11.0 0.00 0.00 0.00 34 1014.0
20260901003631 80 194 6.0 9.0 0.00 0.00 0.00 33 1014.0
20260901002621 80 201 6.0 9.0 0.00 0.00 0.00 33 1013.7
20260901001652 81 200 6.0 10.0 0.00 0.00 0.00 33 1013.7
20260901000625 81 178 4.0 9.0 0.00 0.00 0.00 31 1013.7
20260831235651 82 194 6.0 10.0 0.00 0.00 0.00 30 1013.9
20260831234621 82 204 6.0 10.0 0.00 0.00 0.00 28 1013.8
20260831233612 83 219 5.0 10.0 0.00 0.00 0.00 28 1013.9
20260831232623 83 200 5.0 9.0 0.00 0.00 0.00 30 1013.8
20260831231619 83 188 7.0 13.0 0.00 0.00 0.00 30 1013.8
20260831230630 84 164 5.0 11.0 0.00 0.00 0.00 28 1013.7
20260831225612 84 190 4.0 10.0 0.00 0.00 0.00 28 1013.5
20260831224627 84 232 5.0 9.0 0.00 0.00 0.00 29 1013.4
20260831223637 84 190 5.0 9.0 0.00 0.00 0.00 28 1013.5
20260831222626 84 254 6.0 10.0 0.00 0.00 0.00 29 1013.7
20260831221617 84 221 5.0 10.0 0.00 0.00 0.00 28 1013.8
20260831220631 85 204 7.0 14.0 0.00 0.00 0.00 27 1013.9
20260831215612 85 216 4.0 10.0 0.00 0.00 0.00 26 1013.9
20260831214622 85 193 6.0 13.0 0.00 0.00 0.00 27 1014.0
20260831213613 84 201 4.0 10.0 0.00 0.00 0.00 27 1014.1
20260831212626 85 24 2.0 9.0 0.00 0.00 0.00 27 1014.2
20260831211637 85 194 5.0 11.0 0.00 0.00 0.00 26 1014.3
20260831210649 85 178 4.0 12.0 0.00 0.00 0.00 26 1014.5
20260831205630 85 219 3.0 10.0 0.00 0.00 0.00 25 1014.6
20260831204623 85 230 6.0 11.0 0.00 0.00 0.00 24 1014.8
20260831203613 85 228 6.0 10.0 0.00 0.00 0.00 24 1014.9
20260831202642 84 216 5.0 13.0 0.00 0.00 0.00 23 1015.0
20260831201650 84 246 3.0 9.0 0.00 0.00 0.00 24 1015.3
20260831200639 84 173 4.0 14.0 0.00 0.00 0.00 22 1015.4
20260831195624 84 163 5.0 12.0 0.00 0.00 0.00 23 1015.5
20260831194615 83 208 6.0 11.0 0.00 0.00 0.00 24 1015.6
20260831193624 83 201 5.0 12.0 0.00 0.00 0.00 22 1015.9
20260831192614 84 220 5.0 9.0 0.00 0.00 0.00 22 1015.9
20260831191628 83 232 5.0 11.0 0.00 0.00 0.00 22 1016.1
20260831190619 83 222 4.0 9.0 0.00 0.00 0.00 21 1016.2
20260831185620 83 214 3.0 9.0 0.00 0.00 0.00 22 1016.2
20260831184614 82 199 4.0 8.0 0.00 0.00 0.00 22 1016.2
20260831183623 82 227 2.0 4.0 0.00 0.00 0.00 23 1016.4
20260831182614 81 256 1.0 8.0 0.00 0.00 0.00 22 1016.6
20260831181624 80 257 1.0 6.0 0.00 0.00 0.00 23 1016.9
20260831180622 80 236 2.0 7.0 0.00 0.00 0.00 22 1017.0
20260831175627 79 268 1.0 4.0 0.00 0.00 0.00 23 1017.1
20260831174617 78 291 2.0 5.0 0.00 0.00 0.00 23 1017.0
20260831173628 78 360 2.0 3.0 0.00 0.00 0.00 23 1017.0
20260831172620 76 295 0.0 5.0 0.00 0.00 0.00 25 1017.2
20260831171615 76 290 2.0 5.0 0.00 0.00 0.00 27 1017.2
20260831170647 75 298 2.0 4.0 0.00 0.00 0.00 27 1017.0
20260831165629 74 344 2.0 4.0 0.00 0.00 0.00 28 1017.2
20260831164621 73 343 2.0 6.0 0.00 0.00 0.00 29 1017.3
20260831163616 71 336 2.0 6.0 0.00 0.00 0.00 32 1017.3
20260831162648 70 342 3.0 6.0 0.00 0.00 0.00 34 1017.2
20260831161617 69 12 3.0 8.0 0.00 0.00 0.00 33 1017.2
20260831160627 68 355 4.0 9.0 0.00 0.00 0.00 32 1017.3
20260831155614 67 328 4.0 9.0 0.00 0.00 0.00 33 1017.4
20260831154626 65 355 4.0 8.0 0.00 0.00 0.00 33 1017.4
20260831153617 64 342 3.0 6.0 0.00 0.00 0.00 35 1017.4
20260831152632 63 15 3.0 9.0 0.00 0.00 0.00 37 1017.5
20260831151622 62 355 2.0 9.0 0.00 0.00 0.00 38 1017.6
20260831150635 60 345 3.0 6.0 0.00 0.00 0.00 40 1017.6
20260831145617 59 351 2.0 6.0 0.00 0.00 0.00 44 1017.6
20260831144613 57 5 5.0 6.0 0.00 0.00 0.00 45 1017.5
20260831143623 56 18 3.0 5.0 0.00 0.00 0.00 50 1017.5
20260831142615 54 5 2.0 8.0 0.00 0.00 0.00 53 1017.6
20260831141626 52 38 2.0 5.0 0.00 0.00 0.00 54 1017.5
20260831140621 50 38 2.0 4.0 0.00 0.00 0.00 56 1017.5
20260831135625 48 38 0.0 4.0 0.00 0.00 0.00 62 1017.5
20260831134616 48 38 1.0 4.0 0.00 0.00 0.00 63 1017.6
20260831133627 47 38 2.0 5.0 0.00 0.00 0.00 62 1017.5
20260831132643 47 38 3.0 5.0 0.00 0.00 0.00 61 1017.5
20260831131613 47 38 2.0 5.0 0.00 0.00 0.00 63 1017.5
20260831130624 46 38 1.0 6.0 0.00 0.00 0.00 66 1017.6
20260831125627 45 36 3.0 6.0 0.00 0.00 0.00 67 1017.5
20260831124643 46 36 2.0 5.0 0.00 0.00 0.00 65 1017.5
20260831123614 46 35 2.0 5.0 0.00 0.00 0.00 65 1017.5
20260831122625 46 35 2.0 4.0 0.00 0.00 0.00 66 1017.5
20260831121620 46 35 1.0 5.0 0.00 0.00 0.00 65 1017.5
20260831120613 47 34 1.0 4.0 0.00 0.00 0.00 63 1017.5
20260831115635 47 34 2.0 5.0 0.00 0.00 0.00 62 1017.5
20260831114625 48 34 2.0 4.0 0.00 0.00 0.00 61 1017.5
20260831113612 48 34 1.0 3.0 0.00 0.00 0.00 62 1017.6
20260831112625 47 34 3.0 5.0 0.00 0.00 0.00 62 1017.6
20260831111615 48 35 1.0 4.0 0.00 0.00 0.00 61 1017.7
20260831110626 47 34 3.0 4.0 0.00 0.00 0.00 62 1017.5
20260831105650 47 34 1.0 4.0 0.00 0.00 0.00 64 1017.8
20260831104622 47 34 2.0 4.0 0.00 0.00 0.00 63 1017.8
20260831103613 48 34 0.0 1.0 0.00 0.00 0.00 61 1017.8
20260831102623 49 34 2.0 6.0 0.00 0.00 0.00 61 1017.7
20260831101615 49 35 2.0 4.0 0.00 0.00 0.00 61 1017.8
20260831100644 48 35 1.0 4.0 0.00 0.00 0.00 63 1017.6
20260831095625 47 35 1.0 3.0 0.00 0.00 0.00 66 1017.5
20260831094637 47 35 3.0 5.0 0.00 0.00 0.00 67 1017.5
20260831093625 47 34 2.0 5.0 0.00 0.00 0.00 67 1017.5
20260831092640 47 33 4.0 5.0 0.00 0.00 0.00 65 1017.4
20260831091629 49 34 2.0 5.0 0.00 0.00 0.00 62 1017.4
20260831090640 49 34 2.0 4.0 0.00 0.00 0.00 63 1017.3
20260831085641 49 34 2.0 3.0 0.00 0.00 0.00 63 1017.4
20260831084616 50 34 0.0 2.0 0.00 0.00 0.00 61 1017.3
20260831083626 51 34 0.0 2.0 0.00 0.00 0.00 59 1017.2
20260831082615 52 34 0.0 1.0 0.00 0.00 0.00 58 1017.3
20260831081625 52 34 0.0 0.0 0.00 0.00 0.00 58 1017.4
20260831080620 52 34 0.0 0.0 0.00 0.00 0.00 57 1017.5
20260831075623 52 34 0.0 3.0 0.00 0.00 0.00 58 1017.4
20260831074614 52 34 1.0 3.0 0.00 0.00 0.00 56 1017.4
20260831073625 53 34 1.0 4.0 0.00 0.00 0.00 55 1017.4
20260831072641 53 34 1.0 4.0 0.00 0.00 0.00 53 1017.4
20260831071629 53 32 1.0 3.0 0.00 0.00 0.00 53 1017.4
20260831070641 54 31 2.0 4.0 0.00 0.00 0.00 52 1017.5
20260831065623 54 31 2.0 5.0 0.00 0.00 0.00 51 1017.5
20260831064618 55 31 1.0 4.0 0.00 0.00 0.00 50 1017.6
20260831063630 56 31 1.0 3.0 0.00 0.00 0.00 48 1017.6
20260831062621 57 31 1.0 3.0 0.00 0.00 0.00 46 1017.5
20260831061653 57 31 2.0 4.0 0.00 0.00 0.00 46 1017.6
20260831060649 56 31 2.0 3.0 0.00 0.00 0.00 47 1017.6
20260831055615 56 31 1.0 2.0 0.00 0.00 0.00 48 1017.6
20260831054626 57 31 0.0 3.0 0.00 0.00 0.00 48 1017.6
20260831053618 57 31 1.0 3.0 0.00 0.00 0.00 47 1017.6
20260831052629 58 31 2.0 3.0 0.00 0.00 0.00 46 1017.6
20260831051625 58 31 1.0 2.0 0.00 0.00 0.00 45 1017.6
20260831050616 59 31 0.0 2.0 0.00 0.00 0.00 44 1017.5
20260831045619 59 31 2.0 3.0 0.00 0.00 0.00 43 1017.5
20260831044615 59 31 0.0 2.0 0.00 0.00 0.00 43 1017.5
20260831043646 60 31 1.0 2.0 0.00 0.00 0.00 43 1017.4
20260831042617 60 31 1.0 3.0 0.00 0.00 0.00 42 1017.4
20260831041628 60 31 2.0 4.0 0.00 0.00 0.00 43 1017.4
20260831040623 60 31 2.0 4.0 0.00 0.00 0.00 45 1017.4
20260831035626 61 31 2.0 3.0 0.00 0.02 0.00 43 1017.2
20260831034616 61 31 0.0 3.0 0.00 0.02 0.00 43 1017.0
20260831033626 62 31 1.0 3.0 0.00 0.02 0.00 43 1017.0
20260831032622 62 32 0.0 4.0 0.00 0.02 0.00 42 1016.9